ZHANGHENG 1-01 (CSES-1)

Last updated on Mon Sep 21 2026 00:03:33 GMT+0000 (Coordinated Universal Time)

1 43194U 18015C 26263.60853733 .00004591 00000+0 21194-3 0 9998 2 43194 97.6963 71.2186 0013206 308.3117 51.6929 15.20668967479140
UTC large
Height (km)
Speed (km/s)
/
Latitude / Longitude
Inclination (degrees)
Orbital Period (minutes)
Azimuth
Elevation
Range (km)
Doppler Factor

Next 0 passes for location: London (51.5072 / 0.1276)

No passes found over London.
ZHANGHENG 1-01 (CSES-1)